FW3899 Weather Reports


time (UTC)temp
F
wind
direction
speed
knots
gust
knots
rain 1hr
in
rain 24hr
in
rain mn
in
humidity
%
barometer
mb
20260506023051 50 259 3.5 7.8 0.00 0.03 0.00 89 1007.0
20260506021553 51 218 3.5 10.4 0.00 0.03 0.00 89 1007.1
20260506020046 51 276 7.8 12.2 0.00 0.03 0.00 88 1007.2
20260506014550 51 272 7.8 11.3 0.00 0.03 0.00 89 1007.5
20260506013041 51 265 7.0 10.4 0.00 0.03 0.00 89 1007.6
20260506011541 50 288 4.3 7.8 0.00 0.03 0.00 90 1007.9
20260506010037 50 220 4.3 7.0 0.00 0.03 0.00 93 1008.0
20260506004541 49 235 0.9 2.6 0.00 0.03 0.00 91 1008.2
20260506003033 49 237 1.7 3.5 0.00 0.03 0.00 91 1008.3
20260506001534 50 237 2.6 5.2 0.00 0.03 0.00 90 1008.4
20260506000039 50 218 3.5 7.8 0.00 0.03 0.00 90 1008.5
20260505234530 50 252 4.3 8.7 0.00 0.03 0.00 91 1008.5
20260505233027 50 255 3.5 6.1 0.00 0.03 0.00 92 1008.6
20260505231524 50 232 2.6 7.0 0.00 0.03 0.00 94 1008.7
20260505230020 49 201 2.6 4.3 0.00 0.03 0.00 93 1008.9
20260505224519 49 307 0.9 2.6 0.00 0.03 0.00 94 1008.9
20260505223014 49 220 0.0 3.5 0.00 0.03 0.00 94 1008.8
20260505221513 49 199 1.7 3.5 0.00 0.03 0.00 93 1008.8
20260505220024 49 196 1.7 3.5 0.00 0.03 0.03 93 1009.0
20260505214516 49 193 2.6 3.5 0.00 0.03 0.03 92 1009.1
20260505213010 50 201 0.9 2.6 0.00 0.03 0.03 92 1009.2
20260505211509 50 207 1.7 2.6 0.00 0.03 0.03 92 1009.2
20260505210009 50 204 1.7 3.5 0.00 0.03 0.03 93 1009.2
20260505204515 50 197 2.6 4.3 0.00 0.03 0.03 93 1009.3
20260505203008 50 192 2.6 3.5 0.00 0.03 0.03 93 1009.3
20260505201507 50 208 2.6 5.2 0.00 0.03 0.03 93 1009.0
20260505200009 50 202 2.6 5.2 0.00 0.03 0.03 93 1009.1
20260505194507 50 196 2.6 4.3 0.00 0.03 0.03 92 1009.0
20260505193017 50 217 3.5 5.2 0.00 0.03 0.03 92 1008.9
20260505191504 51 203 2.6 4.3 0.00 0.03 0.03 90 1008.6
20260505190011 52 178 0.9 3.5 0.00 0.03 0.03 90 1008.6
20260505184503 53 192 2.6 5.2 0.00 0.03 0.03 90 1008.5
20260505183004 54 201 3.5 7.8 0.00 0.03 0.03 90 1008.5
20260505181501 54 200 3.5 8.7 0.00 0.03 0.03 90 1008.6
20260505180001 54 179 0.9 5.2 0.00 0.03 0.03 91 1008.7
20260505174601 53 131 2.6 5.2 0.00 0.03 0.03 92 1008.6
20260505173101 53 142 2.6 7.0 0.00 0.03 0.03 92 1008.7
20260505171559 53 142 2.6 7.8 0.02 0.03 0.03 92 1008.4
20260505170109 53 180 1.7 4.3 0.02 0.03 0.03 93 1008.3
20260505164559 52 265 1.7 6.1 0.02 0.05 0.03 92 1008.1
20260505163107 52 264 3.5 8.7 0.02 0.04 0.02 92 1008.0
20260505161557 53 259 6.1 11.3 0.01 0.03 0.02 89 1008.2
20260505153107 54 256 9.6 19.1 0.01 0.03 0.01 85 1007.9
20260505151555 55 241 12.2 18.2 0.01 0.03 0.01 83 1007.8
20260505150111 58 272 13.0 23.5 0.00 0.02 0.00 79 1007.7
20260505124540 59 230 5.2 9.6 0.00 0.02 0.00 84 1007.9
20260505123100 58 282 4.3 7.8 0.00 0.02 0.00 86 1007.8
20260505121535 58 347 0.9 4.3 0.00 0.02 0.00 88 1007.7
20260505120045 57 259 3.5 6.1 0.00 0.02 0.00 87 1007.9
20260505114541 56 274 2.6 3.5 0.00 0.02 0.00 87 1007.9
20260505113028 56 302 1.7 6.1 0.00 0.02 0.00 88 1007.9
20260505111527 56 317 3.5 6.1 0.00 0.02 0.00 88 1007.8
20260505101518 54 232 2.6 4.3 0.00 0.02 0.00 89 1008.2
20260505100016 54 134 0.0 0.0 0.00 0.02 0.00 90 1008.2
20260505094513 54 142 0.0 0.0 0.00 0.02 0.00 90 1008.2
20260505093012 53 142 0.0 0.9 0.00 0.02 0.00 91 1008.1
20260505091509 53 59 0.9 2.6 0.00 0.02 0.00 90 1008.0
20260505090009 53 162 0.9 2.6 0.00 0.02 0.00 90 1008.2
20260505084509 53 221 1.7 5.2 0.00 0.02 0.00 91 1008.2
20260505083006 52 219 1.7 5.2 0.00 0.02 0.00 92 1008.3
20260505081504 52 284 3.5 6.1 0.00 0.02 0.00 93 1008.3
20260505080059 52 312 0.9 3.5 0.00 0.02 0.00 93 1008.4
20260505074555 51 275 4.3 6.1 0.00 0.02 0.00 91 1008.7
20260505073057 52 219 0.0 3.5 0.00 0.02 0.00 91 1008.8
20260505071548 51 308 0.9 2.6 0.00 0.02 0.00 91 1008.9
20260505070053 51 322 0.0 2.6 0.00 0.02 0.00 91 1009.0
20260505064545 51 211 2.6 4.3 0.00 0.02 0.00 91 1009.0
20260505063045 51 278 4.3 8.7 0.00 0.02 0.00 91 1009.0
20260505061542 51 257 2.6 11.3 0.00 0.02 0.00 92 1009.1
20260505060038 51 235 3.5 7.8 0.00 0.02 0.00 94 1009.1
20260505054535 50 282 1.7 4.3 0.00 0.02 0.00 96 1009.0
20260505053032 49 67 0.0 2.6 0.00 0.02 0.00 95 1009.0
20260505051535 49 355 0.9 4.3 0.00 0.02 0.00 95 1008.9
20260505041538 47 228 0.0 0.0 0.00 0.02 0.00 95 1009.1
20260505040021 47 228 0.0 0.0 0.00 0.02 0.00 96 1009.0
20260505034519 47 212 0.0 0.0 0.00 0.02 0.00 96 1009.0
20260505033019 47 211 0.0 0.0 0.00 0.02 0.00 96 1009.0
20260505030015 46 212 1.7 2.6 0.00 0.02 0.00 95 1009.2
20260505024513 46 212 0.0 2.6 0.00 0.02 0.00 95 1009.4